This is the latest recevied weather packets stored in our database for station/object EA5DFV. If no packets are shown the sender has not sent any weather packets the latest 10 day(s).
| Time | Temp. | Humidity | Pressure | Rain* | Wind** | Luminosity | Snow |
|---|---|---|---|---|---|---|---|
| 1777895317 | 21.67° C | 76% | 1011.6 hPa | 0 mm | - | 179 W/m² | - |
| 1777895008 | 21.67° C | 76% | 1011.7 hPa | 0 mm | - | 411 W/m² | - |
| 1777894705 | 21.67° C | 75% | 1011.7 hPa | 0 mm | - | 299 W/m² | - |
| 1777894399 | 21.67° C | 75% | 1011.7 hPa | 0 mm | - | 278 W/m² | - |
| 1777894110 | 21.67° C | 76% | 1011.8 hPa | 0 mm | - | 424 W/m² | - |
| 1777893800 | 21.67° C | 76% | 1011.8 hPa | 0 mm | - | 476 W/m² | - |
| 1777893511 | 21.11° C | 77% | 1011.7 hPa | 0 mm | - | 1048 W/m² | - |
| 1777893207 | 21.11° C | 76% | 1011.8 hPa | 0 mm | - | 369 W/m² | - |
| 1777892918 | 20.56° C | 77% | 1011.8 hPa | 0 mm | - | 364 W/m² | - |
| 1777892608 | 20.56° C | 78% | 1011.8 hPa | 0 mm | - | 510 W/m² | - |
| 1777892303 | 20° C | 78% | 1011.9 hPa | 0 mm | - | 394 W/m² | - |
| 1777892013 | 20.56° C | 77% | 1012.1 hPa | 0 mm | - | 255 W/m² | - |
| 1777891704 | 20.56° C | 77% | 1012.1 hPa | 0 mm | - | 125 W/m² | - |
| 1777891414 | 21.11° C | 76% | 1012.1 hPa | 0 mm | - | 149 W/m² | - |
| 1777891107 | 21.67° C | 75% | 1012.1 hPa | 0 mm | - | 176 W/m² | - |
| 1777890803 | 21.67° C | 75% | 1012.1 hPa | 0 mm | - | 225 W/m² | - |
| 1777890514 | 21.67° C | 76% | 1012 hPa | 0 mm | - | 1020 W/m² | - |
| 1777890205 | 21.67° C | 75% | 1012 hPa | 0 mm | - | 371 W/m² | - |
| 1777889902 | 22.22° C | 74% | 1012 hPa | 0 mm | - | 220 W/m² | - |
| 1777889613 | 22.78° C | 73% | 1011.9 hPa | 0 mm | - | 172 W/m² | - |
| 1777889306 | 23.33° C | 72% | 1011.8 hPa | 0 mm | - | 183 W/m² | - |
| 1777889013 | 23.89° C | 73% | 1011.8 hPa | 0 mm | - | 1062 W/m² | - |
| 1777888706 | 23.33° C | 72% | 1011.8 hPa | 0 mm | - | 986 W/m² | - |
| 1777888417 | 23.33° C | 72% | 1011.7 hPa | 0 mm | - | 956 W/m² | - |
| 1777888108 | 23.33° C | 68% | 1011.6 hPa | 0 mm | - | 926 W/m² | - |
* Rain latest hour (hover to see other rain measurements)
** Current wind speed in m/s (hover to see current wind gust speed)